Miscellaneous Local Product
Issued by NWS Hastings, NE

Home | Current Version | Previous Version | Graphics & Text | Print | Product List | Glossary On
Versions: 1 2 3 4 5 6 7 8 9 10 11 12 13 14 15 16 17 18 19 20 21 22 23 24 25 26 27 28 29 30 31 32 33 34 35 36 37 38 39 40 41 42 43 44 45 46 47 48 49 50
000
AXUS43 KGID 050802
MISGRI

GID CWA HOURLY WEATHER ROUNDUP
NATIONAL WEATHER SERVICE HASTINGS NE
300 AM CDT WED AUG 05 2015

NOTE: "FAIR" INDICATES FEW OR NO CLOUDS BELOW 12,000 FEET WITH NO
SIGNIFICANT WEATHER AND/OR OBSTRUCTIONS TO VISIBILITY.

...SOUTH CENTRAL NEBRASKA...

CITY           SKY/WX    TMP DP  RH WIND       PRES   REMARKS
GRAND ISLAND   CLOUDY    65  64  97 CALM      29.98F
HASTINGS       CLOUDY    66  64  93 E5        29.98F
KEARNEY        MOCLDY    64  61  88 CALM      29.99F
ORD            CLOUDY    64  63  96 CALM      30.00R
YORK           LGT RAIN  66  66 100 W3        29.98F
AURORA         CLOUDY    67  67 100 CALM      29.97F
LEXINGTON      CLOUDY    65  64  96 CALM      30.01S FOG
HOLDREGE       MOCLDY    63  61  94 N3        30.00S
HEBRON         LGT RAIN  67  64  91 N3        29.97F

...NEBRASKA PANHANDLE...

CITY           SKY/WX    TMP DP  RH WIND       PRES   REMARKS
CHADRON        PTCLDY    62  59  90 S5        30.02F
ALLIANCE       PTCLDY    58  56  93 S6        30.06F
SCOTTSBLUFF    CLEAR     61  60  97 SE5       30.07F
SIDNEY         CLEAR     54  53  97 NW8       30.10F

...WESTERN AND NORTH CENTRAL NEBRASKA...

CITY           SKY/WX    TMP DP  RH WIND       PRES   REMARKS
VALENTINE      NOT AVBL
AINSWORTH      CLOUDY    65  65  98 CALM      30.01S
ONEILL         PTCLDY    65  64  96 S3        30.01R
BROKEN BOW     CLOUDY    65  63  93 S3        30.01F
IMPERIAL       CLEAR     61  58  90 CALM      30.04S
NORTH PLATTE   CLOUDY    60  59  96 CALM      30.03R FOG
MCCOOK         PTCLDY    60  59  96 CALM      30.00F

...EASTERN NEBRASKA...

CITY           SKY/WX    TMP DP  RH WIND       PRES   REMARKS
NORFOLK        CLOUDY    68  63  84 E8        29.99S
SO SIOUX CITY  LGT RAIN  67  62  84 E10       29.98F
TEKAMAH        MOCLDY    66  64  93 CALM      29.99R
COLUMBUS       CLOUDY    68  63  83 E6        29.99R
ALBION         CLOUDY    67  64  90 E3        30.00R
OMAHA EPPLEY   MOCLDY    68  65  90 SE6       29.99R
OFFUTT AFB     MOCLDY    67  66  97 E8        29.98R
MILLARD        MOCLDY    69  67  92 CALM      29.98S
LINCOLN        CLOUDY    73  70  90 SE8       29.97F
NEBRASKA CITY  CLOUDY    69  68  98 SE5       30.00R
BEATRICE       CLOUDY    71  69  95 SE3       29.98R
FALLS CITY     CLOUDY    69  68  96 E6        29.98S FOG

...NORTHERN KANSAS...

CITY           SKY/WX    TMP DP  RH WIND       PRES   REMARKS
GOODLAND       CLEAR     59  58  96 CALM      30.05F
HILL CITY      CLOUDY    67  64  90 N6        29.98S
NORTON         MOSUNNY   61  57  88 N3        29.98S
PHILLIPSBURG   LGT RAIN  70  68  94 N5        29.98R
SMITH CENTER   CLOUDY    64  63  94 W9        29.99R
HAYS           MOCLDY    72  64  78 CALM      29.94R
RUSSELL        MOCLDY    73  70  90 CALM      29.93R
CONCORDIA      LGT RAIN  67  66  97 NE6       29.95F
SALINA         MOCLDY    74  69  85 SE16      29.88F THUNDER
TOPEKA         MOCLDY    70  68  93 E3        29.98R



USA.gov is the U.S. government's official web portal to all federal, state and local government web resources and services.